User: anonymous   Login
Location: Blue Mountain Vista Observatory
(40.6992°N, 75.9422°W)
Time: 17:57:45
(UTC-05:00)
Language:

CZ-4C R/B - Orbit

View from above orbital plane
View from above orbital plane
View from above satellite
View from above satellite

Ground track
Ground track

The orbit data is extracted from the following two-line orbital elements,

1 36416U 10009D   15025.74091522 -.00000046  00000-0  41860-4 0  8110
2 36416 063.4479 084.4017 0301802 359.4609 000.6062 13.69446912244750
Epoch (UTC): 25 January 2015 17:46:55
Eccentricity: 0.0301802
inclination: 63.4479°
perigee height: 779 km
apogee height: 1224 km
right ascension of ascending node: 84.4017°
argument of perigee: 359.4609°
revolutions per day: 13.69446912
mean anomaly at epoch: 0.6062°
orbit number at epoch: 24475

The dashed part of the orbit path shows where the satellite is in the earth's shadow,  

DLR